Location: Laverne
(36.7100°N, 99.8930°W)
Time: 01:19:13
(UTC-06:00)

Cosmos 1125 Rocket - Pass Details

Date: 19 October 2017
Orbit: 757 x 781 km, 74.0° (Epoch: 19 November)

Event Time Altitude Azimuth Distance (km) Brightness Sun altitude
Rises 05:50:48 0° 183° (S) 3,212 6.6 -24.8°
Reaches altitude 10° 05:53:12 10° 178° (S) 2,294 5.9 -24.3°
Maximum altitude 05:58:14 51° 103° (ESE) 961 4.3 -23.3°
Drops below altitude 10° 06:03:20 10° 29° (NNE) 2,324 6.4 -22.3°
Sets 06:05:46 0° 24° (NNE) 3,259 7.1 -21.8°
